Location: Sternwarte_Laufen
(47.9344°N, 12.9346°E)
Time: 09:29:36
(UTC+02:00)

ISS - Visible Passes

Search period start: 26 May 2017 00:00
Search period end: 05 June 2017 00:00
Orbit: 402 x 408 km, 51.6° (Epoch: 26 May)

Date Brightness Start Highest point End Pass type
(mag) Time Alt. Az. Time Alt. Az. Time Alt. Az.
26 May -2.6 00:14:30 10° W 00:17:41 44° N 00:20:52 10° ENE visible
26 May -3.0 01:51:17 10° WNW 01:54:32 52° NNE 01:57:45 10° E visible
26 May -3.6 03:27:51 10° WNW 03:31:01 44° SSW 03:34:09 10° SE visible
26 May -3.6 21:45:50 10° SW 21:49:01 47° SSE 21:52:12 10° ENE visible
26 May -2.9 23:22:17 10° W 23:25:31 51° NNW 23:28:45 10° ENE visible
27 May -2.7 00:59:11 10° WNW 01:02:23 44° N 01:05:33 10° E visible
27 May -4.0 02:35:44 10° WNW 02:39:01 71° SSW 02:42:18 10° ESE visible
27 May -2.0 04:13:18 10° WSW 04:15:02 14° SW 04:16:45 10° SSW visible
27 May -3.4 22:30:06 10° WSW 22:33:24 67° NNW 22:36:41 10° ENE visible
28 May -2.5 00:07:02 10° WNW 00:10:12 41° N 00:13:21 10° ENE visible
28 May -3.8 01:43:39 10° WNW 01:46:58 78° NNE 01:47:24 63° E visible
28 May -3.8 21:38:00 10° WSW 21:41:18 87° SSE 21:44:36 10° ENE visible
28 May -2.5 23:14:50 10° WNW 23:18:01 42° N 23:21:11 10° ENE visible
29 May -3.2 00:51:34 10° WNW 00:54:50 57° NNE 00:55:58 35° ENE visible
29 May -1.3 02:28:11 10° WNW 02:28:33 12° W 02:28:33 12° W visible
29 May -2.7 22:22:36 10° W 22:25:49 48° N 22:29:01 10° ENE visible
29 May -2.8 23:59:27 10° WNW 00:02:40 47° N 00:05:03 16° E visible
30 May -2.3 01:36:00 10° WNW 01:37:40 27° W 01:37:40 27° W visible
30 May -2.6 23:07:17 10° WNW 23:10:27 42° N 23:13:37 10° ENE visible
31 May -3.8 00:43:52 10° WNW 00:46:57 76° WNW 00:46:57 76° WNW visible
31 May -2.5 22:15:03 10° WNW 22:18:13 41° N 22:21:23 10° ENE visible
31 May -3.5 23:51:45 10° WNW 23:55:02 64° NNE 23:56:19 32° E visible
01 Jun -1.3 01:28:26 10° W 01:28:56 13° W 01:28:56 13° W visible
01 Jun -3.0 22:59:36 10° WNW 23:02:50 50° NNE 23:05:45 12° E visible
02 Jun -2.8 00:36:09 10° WNW 00:38:23 35° W 00:38:23 35° W visible
02 Jun -2.7 22:07:25 10° WNW 22:10:35 43° N 22:13:46 10° E visible
02 Jun -4.0 23:43:57 10° WNW 23:47:15 79° SSW 23:47:51 56° SE visible
03 Jun -3.6 22:51:48 10° WNW 22:55:06 72° NNE 22:57:21 19° ESE visible
04 Jun -1.8 00:28:35 10° W 00:30:00 19° WSW 00:30:00 19° WSW visible
04 Jun -3.1 21:59:38 10° WNW 22:02:52 54° NNE 22:06:08 10° E visible
04 Jun -3.3 23:36:12 10° WNW 23:39:20 41° SSW 23:39:31 41° SSW visible
